This is the latest recevied weather packets stored in our database for station/object KD9ZDW. If no packets are shown the sender has not sent any weather packets the latest 10 day(s).
| Time | Temp. | Humidity | Pressure | Rain* | Wind** | Luminosity | Snow |
|---|---|---|---|---|---|---|---|
| 1777818219 | 12.22° C | 48% | 1018.2 hPa | 0 mm | - | 291 W/m² | - |
| 1777817915 | 12.22° C | 48% | 1018.2 hPa | 0 mm | - | 156 W/m² | - |
| 1777817613 | 11.67° C | 51% | 1018.5 hPa | 0 mm | - | 158 W/m² | - |
| 1777817309 | 11.67° C | 50% | 1018.7 hPa | 0 mm | - | 221 W/m² | - |
| 1777817007 | 11.67° C | 50% | 1018.6 hPa | 0 mm | - | 195 W/m² | - |
| 1777816702 | 11.11° C | 51% | 1018.8 hPa | 0 mm | - | 122 W/m² | - |
| 1777816400 | 11.11° C | 50% | 1018.5 hPa | 0 mm | - | 195 W/m² | - |
| 1777816098 | 10.56° C | 51% | 1018.8 hPa | 0 mm | - | 121 W/m² | - |
| 1777815795 | 10.56° C | 51% | 1018.9 hPa | 0 mm | - | 270 W/m² | - |
| 1777815493 | 10.56° C | 51% | 1018.8 hPa | 0 mm | - | 198 W/m² | - |
| 1777815190 | 10.56° C | 52% | 1018.5 hPa | 0 mm | - | 157 W/m² | - |
| 1777814886 | 10° C | 54% | 1018.5 hPa | 0 mm | - | 320 W/m² | - |
| 1777814582 | 10° C | 53% | 1018.5 hPa | 0 mm | - | 308 W/m² | - |
| 1777814280 | 9.44° C | 54% | 1018.6 hPa | 0 mm | - | 255 W/m² | - |
| 1777813976 | 9.44° C | 54% | 1018.8 hPa | 0 mm | - | 250 W/m² | - |
| 1777813674 | 9.44° C | 55% | 1018.7 hPa | 0 mm | - | 116 W/m² | - |
| 1777813371 | 8.89° C | 58% | 1018.7 hPa | 0 mm | - | 241 W/m² | - |
| 1777813068 | 8.89° C | 57% | 1018.6 hPa | 0 mm | - | 234 W/m² | - |
| 1777812766 | 8.89° C | 56% | 1018.8 hPa | 0 mm | - | 120 W/m² | - |
| 1777812462 | 8.89° C | 57% | 1018.8 hPa | 0 mm | - | 185 W/m² | - |
| 1777812160 | 8.33° C | 59% | 1018.9 hPa | 0 mm | - | 165 W/m² | - |
| 1777811858 | 7.78° C | 61% | 1018.8 hPa | 0 mm | - | 177 W/m² | - |
| 1777811557 | 7.78° C | 63% | 1018.9 hPa | 0 mm | - | 164 W/m² | - |
| 1777811252 | 7.22° C | 62% | 1018.7 hPa | 0 mm | - | 111 W/m² | - |
| 1777810949 | 7.22° C | 64% | 1018.9 hPa | 0 mm | - | 138 W/m² | - |
* Rain latest hour (hover to see other rain measurements)
** Current wind speed in m/s (hover to see current wind gust speed)